| time (UTC) | temp C | wind direction | speed KPH | gust KPH | rain 1hr cm | rain 24hr cm | rain mn cm | humidity % | barometer mb |
| 20260505124602 | 15 | 87 | 0.0 | 4.8 | 0.00 | 0.00 | 0.00 | 97 | 1005.9 |
| 20260505123028 | 15 | 66 | 0.0 | 3.2 | 0.00 | 0.00 | 0.00 | 96 | 1005.7 |
| 20260505121601 | 15 | 72 | 0.0 | 4.8 | 0.00 | 0.00 | 0.00 | 96 | 1005.6 |
| 20260505120029 | 15 | 70 | 0.0 | 3.2 | 0.00 | 0.00 | 0.00 | 96 | 1005.6 |
| 20260505114559 | 15 | 38 | 0.0 | 8.0 | 0.00 | 0.00 | 0.00 | 96 | 1005.4 |
| 20260505113037 | 15 | 47 | 3.2 | 14.5 | 0.00 | 0.00 | 0.00 | 95 | 1004.8 |
| 20260505111556 | 15 | 187 | 0.0 | 3.2 | 0.00 | 0.00 | 0.00 | 95 | 1004.4 |
| 20260505101558 | 15 | 119 | 1.6 | 3.2 | 0.00 | 0.00 | 0.00 | 95 | 1004.5 |
| 20260505100024 | 15 | 169 | 4.8 | 8.0 | 0.00 | 0.00 | 0.00 | 95 | 1004.7 |
| 20260505094601 | 15 | 166 | 4.8 | 8.0 | 0.00 | 0.00 | 0.00 | 95 | 1004.8 |
| 20260505093032 | 15 | 210 | 4.8 | 12.9 | 0.00 | 0.00 | 0.00 | 94 | 1005.6 |
| 20260505091607 | 15 | 199 | 3.2 | 11.3 | 0.00 | 0.00 | 0.00 | 94 | 1005.5 |
| 20260505090028 | 15 | 220 | 0.0 | 6.4 | 0.00 | 0.00 | 0.00 | 93 | 1005.7 |
| 20260505084558 | 15 | 227 | 1.6 | 9.7 | 0.00 | 0.00 | 0.00 | 92 | 1005.7 |
| 20260505083019 | 15 | 240 | 1.6 | 8.0 | 0.00 | 0.00 | 0.00 | 90 | 1005.2 |
| 20260505081548 | 16 | 324 | 0.0 | 3.2 | 0.00 | 0.00 | 0.00 | 88 | 1005.8 |
| 20260505080024 | 16 | 230 | 1.6 | 11.3 | 0.00 | 0.00 | 0.00 | 83 | 1005.6 |
| 20260505074541 | 17 | 255 | 1.6 | 6.4 | 0.00 | 0.00 | 0.00 | 79 | 1004.7 |
| 20260505073008 | 17 | 199 | 1.6 | 6.4 | 0.00 | 0.00 | 0.00 | 75 | 1005.0 |
| 20260505071534 | 18 | 160 | 1.6 | 12.9 | 0.00 | 0.00 | 0.00 | 73 | 1004.8 |
| 20260505070005 | 18 | 164 | 1.6 | 11.3 | 0.00 | 0.00 | 0.00 | 73 | 1004.8 |
| 20260505064533 | 18 | 125 | 4.8 | 11.3 | 0.00 | 0.00 | 0.00 | 72 | 1005.3 |
| 20260505063003 | 18 | 141 | 4.8 | 12.9 | 0.00 | 0.00 | 0.00 | 72 | 1005.6 |
| 20260505061547 | 18 | 133 | 6.4 | 16.1 | 0.00 | 0.00 | 0.00 | 70 | 1005.9 |
| 20260505054541 | 18 | 161 | 6.4 | 14.5 | 0.00 | 0.00 | 0.00 | 70 | 1005.7 |
| 20260505053057 | 18 | 154 | 6.4 | 16.1 | 0.00 | 0.00 | 0.00 | 69 | 1005.5 |
| 20260505051523 | 18 | 132 | 4.8 | 12.9 | 0.00 | 0.00 | 0.00 | 69 | 1005.9 |
| 20260505041519 | 19 | 155 | 1.6 | 12.9 | 0.00 | 0.00 | 0.00 | 67 | 1006.5 |
| 20260505040059 | 20 | 133 | 3.2 | 11.3 | 0.00 | 0.00 | 0.00 | 66 | 1006.6 |
| 20260505034533 | 20 | 159 | 4.8 | 12.9 | 0.00 | 0.00 | 0.00 | 65 | 1006.7 |
| 20260505033100 | 20 | 165 | 4.8 | 11.3 | 0.00 | 0.00 | 0.00 | 64 | 1006.8 |
| 20260505031520 | 20 | 165 | 6.4 | 11.3 | 0.00 | 0.00 | 0.00 | 62 | 1006.9 |
| 20260505030048 | 21 | 165 | 8.0 | 14.5 | 0.00 | 0.00 | 0.00 | 61 | 1006.8 |
| 20260505024518 | 21 | 152 | 8.0 | 16.1 | 0.00 | 0.00 | 0.00 | 61 | 1006.7 |
| 20260505023050 | 21 | 359 | 6.4 | 14.5 | 0.00 | 0.00 | 0.00 | 61 | 1006.3 |
| 20260505021518 | 21 | 197 | 8.0 | 14.5 | 0.00 | 0.00 | 0.00 | 60 | 1005.9 |
| 20260505020050 | 21 | 145 | 9.7 | 14.5 | 0.00 | 0.00 | 0.00 | 59 | 1005.8 |
| 20260505014518 | 22 | 180 | 8.0 | 16.1 | 0.00 | 0.00 | 0.00 | 58 | 1005.6 |
| 20260505013053 | 22 | 359 | 6.4 | 9.7 | 0.00 | 0.00 | 0.00 | 56 | 1005.4 |
| 20260505011525 | 22 | 158 | 6.4 | 14.5 | 0.00 | 0.00 | 0.00 | 55 | 1005.3 |
| 20260505010106 | 23 | 180 | 6.4 | 12.9 | 0.00 | 0.00 | 0.00 | 54 | 1004.8 |
| 20260505004531 | 23 | 359 | 4.8 | 14.5 | 0.00 | 0.00 | 0.00 | 53 | 1004.6 |
| 20260505003100 | 23 | 359 | 6.4 | 12.9 | 0.00 | 0.00 | 0.00 | 52 | 1004.5 |
| 20260505001533 | 24 | 359 | 4.8 | 16.1 | 0.00 | 0.00 | 0.00 | 50 | 1004.5 |
| 20260505000003 | 25 | 359 | 6.4 | 19.3 | 0.00 | 0.00 | 0.00 | 48 | 1004.3 |
| 20260504234535 | 25 | 359 | 0.0 | 24.1 | 0.00 | 0.00 | 0.00 | 46 | 1004.4 |
| 20260504233004 | 25 | 0.0 | 25.7 | 0.00 | 0.00 | 0.00 | 46 | 1004.6 | |
| 20260504231533 | 26 | 359 | 9.7 | 17.7 | 0.00 | 0.00 | 0.00 | 45 | 1004.6 |
| 20260504230001 | 26 | 359 | 12.9 | 24.1 | 0.00 | 0.00 | 0.00 | 44 | 1004.7 |
| 20260504224536 | 26 | 359 | 14.5 | 29.0 | 0.00 | 0.00 | 0.00 | 44 | 1004.8 |
| 20260504223002 | 26 | 359 | 16.1 | 29.0 | 0.00 | 0.00 | 0.00 | 43 | 1004.9 |
| 20260504221533 | 26 | 359 | 11.3 | 37.0 | 0.00 | 0.00 | 0.00 | 41 | 1005.0 |
| 20260504220107 | 27 | 217 | 14.5 | 29.0 | 0.00 | 0.00 | 0.00 | 41 | 1005.0 |
| 20260504214530 | 26 | 359 | 11.3 | 41.8 | 0.00 | 0.00 | 0.00 | 42 | 1004.9 |
| 20260504213109 | 27 | 230 | 12.9 | 29.0 | 0.00 | 0.00 | 0.00 | 41 | 1005.2 |
| 20260504211536 | 27 | 177 | 14.5 | 22.5 | 0.00 | 0.00 | 0.00 | 41 | 1005.2 |
| 20260504210056 | 27 | 359 | 14.5 | 35.4 | 0.00 | 0.00 | 0.00 | 41 | 1005.5 |
| 20260504204535 | 27 | 359 | 12.9 | 38.6 | 0.00 | 0.00 | 0.00 | 40 | 1005.6 |
| 20260504203051 | 27 | 359 | 11.3 | 25.7 | 0.00 | 0.00 | 0.00 | 42 | 1005.8 |
| 20260504201519 | 26 | 359 | 20.9 | 37.0 | 0.00 | 0.00 | 0.00 | 41 | 1006.0 |
| 20260504200052 | 26 | 359 | 14.5 | 38.6 | 0.00 | 0.00 | 0.00 | 42 | 1005.9 |
| 20260504194517 | 26 | 359 | 8.0 | 35.4 | 0.00 | 0.00 | 0.00 | 44 | 1006.2 |
| 20260504193100 | 26 | 359 | 16.1 | 32.2 | 0.00 | 0.00 | 0.00 | 43 | 1006.3 |
| 20260504191515 | 26 | 359 | 19.3 | 40.2 | 0.00 | 0.00 | 0.00 | 43 | 1006.5 |
| 20260504190049 | 26 | 359 | 11.3 | 25.7 | 0.00 | 0.00 | 0.00 | 44 | 1006.5 |
| 20260504184510 | 26 | 359 | 9.7 | 35.4 | 0.00 | 0.00 | 0.00 | 45 | 1006.7 |
| 20260504183055 | 26 | 359 | 12.9 | 40.2 | 0.00 | 0.00 | 0.00 | 45 | 1006.8 |
| 20260504181516 | 26 | 359 | 19.3 | 33.8 | 0.00 | 0.00 | 0.00 | 44 | 1006.9 |
| 20260504180107 | 26 | 359 | 12.9 | 30.6 | 0.00 | 0.00 | 0.00 | 44 | 1007.0 |
| 20260504174506 | 25 | 359 | 16.1 | 41.8 | 0.00 | 0.00 | 0.00 | 44 | 1007.2 |
| 20260504173035 | 25 | 359 | 17.7 | 38.6 | 0.00 | 0.00 | 0.00 | 44 | 1007.2 |
| 20260504171507 | 25 | 359 | 11.3 | 43.5 | 0.00 | 0.00 | 0.00 | 45 | 1007.2 |